Regional Weather Roundup
Issued by NWS

Home | Current Version | Previous Version | Graphics & Text | Print | Product List | Glossary On
Versions: 1 2 3 4 5 6 7 8 9 10 11 12 13 14 15 16 17 18 19 20 21 22 23 24 25 26 27
000
ASUS45 KCYS 231010
RWRWY

WYOMING REGIONAL WEATHER ROUNDUP
NATIONAL WEATHER SERVICE CHEYENNE WY
300 AM MST MON JAN 23 2017

NOTE:  "FAIR" INDICATES FEW OR NO CLOUDS BELOW 12,000 FEET
WITH NO SIGNIFICANT WEATHER AND/OR OBSTRUCTIONS TO VISIBILITY.

WYZ001-231100-
YELLOWSTONE NATIONAL PARK

CITY           SKY/WX    TMP DP  RH WIND       PRES   REMARKS
LK YELLOWSTONE   N/A     11   9  92 CALM      29.62F
W YELLOWSTONE  NOT AVBL

$$
WYZ002>013-054>058-071-098>099-231100-
NORTHERN WYOMING

CITY           SKY/WX    TMP DP  RH WIND       PRES   REMARKS
JACKSON        CLOUDY    18  16  93 E6        29.64F WCI   9
CODY           FAIR      20  14  77 S5        29.62S WCI  13
GREYBULL       FAIR      15  10  80 NW6       29.65S WCI   6
WORLAND        FAIR      22  19  89 N3        29.63S
SHERIDAN       MOCLDY    21  16  81 SW7       29.64R WCI  12
BUFFALO        CLOUDY    30  16  56 NW8       29.60S WCI  22
GILLETTE       CLOUDY    32  25  75 S9        29.59F WCI  24
HULETT         FAIR      28  19  69 MISG      29.63F
NEWCASTLE      CLOUDY    32  18  55 E10       29.67F WCI  24

$$
WYZ014>020-022>026-101>103-231100-
CENTRAL WYOMING

CITY           SKY/WX    TMP DP  RH WIND       PRES   REMARKS
BIG PINEY      LGT SNOW  17  15  92 CALM      29.66S FOG
PINEDALE       LGT SNOW  18  18 100 W6        29.66F WCI   9
DUBOIS         NOT AVBL
LANDER         CLOUDY    21  13  71 CALM      29.62S
RIVERTON       CLOUDY    17  14  88 W5        29.63S WCI  10
CASPER         MOCLDY    30  23  75 SW22G30   29.63S WCI  17
DOUGLAS        CLOUDY    30  20  66 E5        29.65F WCI  25

$$
WYZ021-027>030-104>119-231100-
SOUTHERN WYOMING

CITY           SKY/WX    TMP DP  RH WIND       PRES   REMARKS
EVANSTON       LGT SNOW  20  16  84 E9        29.59F FOG     WCI   9
ROCK SPRINGS   CLOUDY    26  19  74 SW13      29.64S WCI  15
RAWLINS        CLOUDY    28  21  75 SW21      29.65F WCI  15
LARAMIE        CLOUDY    26  18  71 SW17      29.65F WCI  13
CHEYENNE       FAIR      27  13  55 CALM      29.68F
TORRINGTON     CLOUDY    28  19  69 E7        29.71F WCI  21

$$




USA.gov is the U.S. government's official web portal to all federal, state and local government web resources and services.